Meteo Giornale » Osservazioni meteo Brasile » Porto Alegre Aero-Porto
ore: 07:00 - Osservazioni Meteo Porto Alegre Aero-Porto
Lat. 30° 0' S Lon. 51° 11' W Alt. 3 metri s.l.m.
17 °C
Coperto
Temp. 24 Ore
17 °C
19 °C
Ovest/Sud-Ovest
7.4 Km/h
Dew point 17 °C
Umidità 100 %
Visibilità 9 Km
Il sole sorge alle ore 06:39
Il sole tramonta alle ore 18:09
| Data e Ora | Cielo e Fenomeni | T °C | DP °C | Um. % | Pres. hPa | Vis. km | Vento km/h | |
|---|---|---|---|---|---|---|---|---|
| Oggi h: 07:00 | Coperto | 17 | 17 | 100 | 1011 | 9 | O/SO 7.4 | |
| Oggi h: 06:00 | Coperto | 17 | 17 | 100 | 1010 | 9 | N 5.5 | |
| Oggi h: 05:00 | Coperto | 17 | 17 | 100 | 1009 | 9 | N 5.5 | |
| Oggi h: 04:00 | Pioggia | 17 | 17 | 100 | 1008 | 8 | S 14.8 | |
| Oggi h: 03:00 | Pioggia | 17 | 17 | 100 | 1010 | 6 | S/SO 9.3 | |
| Oggi h: 02:00 | Coperto | 17 | 17 | 100 | 1010 | 8 | O/SO 11.1 | |
| Oggi h: 01:00 | Coperto | 17 | 17 | 100 | 1010 | 7 | O 11.1 | |
| Oggi h: 00:00 | Coperto | 17 | 17 | 100 | 1010 | 10 | N 5.5 | |
| Ieri h: 23:00 | Coperto | 18 | 18 | 100 | 1010 | 10 | N 3.7 | |
| Ieri h: 22:00 | Molto Nuvoloso | 17 | 17 | 100 | 1011 | 10 | N 3.7 | |
| Ieri h: 21:00 | Coperto | 17 | 17 | 100 | 1011 | 10 | E 11.1 | |
| Ieri h: 20:00 | Coperto | 18 | 17 | 93 | 1009 | 10 | N 0 | |
| Ieri h: 19:00 | Coperto | 18 | 17 | 93 | 1009 | 10 | E/SE 13 | |
| Ieri h: 18:00 | Coperto | 18 | 17 | 93 | 1008 | 10 | E/SE 24 | |
| Ieri h: 17:00 | Coperto | 18 | 17 | 93 | 1009 | 10 | E 31.5 | |
| Ieri h: 16:00 | Temporale | 18 | 17 | 93 | 1010 | 10 | E 27.8 | |
| Ieri h: 15:00 | Temporale | 18 | 17 | 93 | 1009 | 10 | E/SE 29.6 | |
| Ieri h: 14:29 | Temporale | 18 | 17 | 93 | 1009 | 10 | E/SE 27.8 | |
| Ieri h: 14:00 | Pioggia | 18 | 17 | 93 | 1009 | 9 | E 33.3 | |
| Ieri h: 13:00 | Coperto | 19 | 17 | 88 | 1010 | 10 | E 33.3 | |
| Ieri h: 12:00 | Molto Nuvoloso | 19 | 17 | 88 | 1011 | 10 | E 38.8 | |
| Ieri h: 11:00 | Molto Nuvoloso | 19 | 17 | 88 | 1012 | 10 | E/SE 38.8 | |
| Ieri h: 10:00 | Molto Nuvoloso | 19 | 17 | 88 | 1012 | 10 | E 37 | |
| Ieri h: 09:00 | Molto Nuvoloso | 18 | 16 | 88 | 1012 | 10 | E 35.2 | |
| Ieri h: 08:00 | Molto Nuvoloso | 18 | 16 | 88 | 1012 | 10 | E 29.6 | |



